www.pogodaiklimat.ru

Погода и климат >> Архив погоды >> Канада >> Hat Island


ПОГОДА в Hat Island

  • Прогноз погоды в Hat Island
  • Монитор погоды в Hat Island
  • Климат города

АРХИВ ПОГОДЫ в Hat Island

Время (UTC), дата Ветер
(напр.,м/с)
 
Видим.   Явления Облачность Т
(С)
Тd
(С)
f
(%)
Тe
(С)
Тes
(С)
Комфортность P
(гПа)
Po
(гПа)
Тmin
(С)
Tmax
(С)
R
(мм)
R24
(мм)
S
(см)
06 19.06 З 9 н/о н/о +2.2 -3 -3 1004.6 1000.0 +1.7 +8.5 60
09 19.06 З 9 н/о н/о +0.8 -5 -5 1004.5 999.9
12 19.06 З 9 н/о н/о +0.6 -5 -5 1003.8 999.2 +0.2 +8.5
15 19.06 С 6 н/о н/о +0.8 -4 -4 1006.8 1002.2
18 19.06 С 11 н/о н/о +1.2 -5 -5 1009.6 1004.9 +0.2 +2.4
21 19.06 СЗ 11 н/о н/о +0.6 -6 -6 1011.7 1007.0
00 20.06 СЗ 11 н/о н/о +0.3 -6 -6 1013.0 1008.3 +0.2 +1.9
03 20.06 СЗ 9 н/о н/о +0.1 -6 -6 1013.4 1008.7
06 20.06 СЗ 8 н/о н/о -0.4 -6 -6 1014.1 1009.4 -0.4 +2.4 221
09 20.06 СЗ 9 н/о н/о -0.8 -7 -7 1014.0 1009.3
12 20.06 СЗ 8 н/о н/о -0.7 -7 -7 1014.3 1009.6 -1.2 +2.4
15 20.06 СЗ 9 н/о н/о +0.1 -6 -6 1014.5 1009.8
18 20.06 СЗ 9 н/о н/о +0.1 -6 -6 1014.4 1009.7 -1.2 +0.5
21 20.06 СЗ 9 н/о н/о -0.3 -6 -6 1014.4 1009.7
00 21.06 СЗ 8 н/о н/о 0.0 -6 -6 1014.0 1009.3 -1.2 +0.5
03 21.06 С 5 н/о н/о -0.2 -5 -5 1013.9 1009.2
06 21.06 СЗ 5 н/о н/о -0.9 -5 -5 1013.5 1008.8 -1.2 +0.5 91
09 21.06 С 7 н/о н/о -1.3 -7 -7 1013.4 1008.7
12 21.06 С 7 н/о н/о -0.5 -6 -6 1013.1 1008.4 -1.5 +0.5
15 21.06 С 8 н/о н/о +0.1 -6 -6 1013.8 1009.1
18 21.06 СЗ 9 н/о н/о +0.7 -5 -5 1013.8 1009.1 -1.5 +0.8
21 21.06 С 5 н/о н/о +0.6 -3 -3 1014.1 1009.4
00 22.06 С 4 н/о н/о +1.7 -1 -1 1014.6 1009.9 +2.0
03 22.06 СЗ 3 н/о н/о +1.2 -1 -1 1015.0 1010.3
06 22.06 СЗ 4 н/о н/о -0.2 -4 -4 1015.1 1010.4 -1.5 +3.1
09 22.06 СЗ 4 н/о н/о -0.9 -5 -5 1015.1 1010.4
12 22.06 СЗ 3 н/о н/о +0.4 -3 -3 1015.1 1010.4 -1.2 +3.1
15 22.06 С 3 н/о н/о -0.6 -4 -4 1015.5 1010.8
18 22.06 СЗ 3 н/о н/о +0.2 -3 -3 1015.9 1011.2 -1.4 +0.6
21 22.06 СЗ 4 н/о н/о +1.2 -2 -2 1016.3 1011.6
00 23.06 СЗ 3 н/о н/о +2.4 -0 -0 1017.1 1012.4 +3.1
03 23.06 СЗ 3 н/о н/о +2.3 0 0 1017.7 1013.0
06 23.06 С 3 н/о н/о -0.1 -3 -3 1017.7 1013.0 -1.4 +3.1
09 23.06 СЗ 3 н/о н/о -0.7 -4 -4 1018.1 1013.4
12 23.06 СЗ 3 н/о н/о +0.6 -2 -2 1018.8 1014.1 -1.0 +3.1
15 23.06 СЗ 3 н/о н/о +3.2 +1 +1 1018.8 1014.1
18 23.06 З 3 н/о н/о +6.4 +5 +5 1018.5 1013.8 -1.0 +6.9
21 23.06 З 3 н/о н/о +7.0 +5 +5 1018.0 1013.3
00 24.06 З 4 н/о н/о +5.8 +3 +3 1017.1 1012.4 +7.7
03 24.06 З 3 н/о н/о +7.3 +6 +6 1016.1 1011.5
06 24.06 З 4 н/о н/о +4.1 +2 +2 1015.5 1010.9 -1.0 +7.9
09 24.06 С 4 н/о н/о +1.3 -2 -2 1016.9 1012.2
12 24.06 СЗ 4 н/о н/о +0.9 -2 -2 1018.5 1013.8 0.0 +7.9
15 24.06 СЗ 5 н/о н/о +2.2 -1 -1 1019.2 1014.5
18 24.06 СЗ 4 н/о н/о +2.4 -1 -1 1019.6 1014.9 0.0 +4.2
21 24.06 СЗ 3 н/о н/о +2.5 0 0 1019.9 1015.2
00 25.06 СЗ 3 н/о н/о +2.4 -0 -0 1020.0 1015.3 +3.0
03 25.06 СЗ 2 н/о н/о +1.5 -0 -0 1019.7 1015.0
06 25.06 Ю 1 н/о н/о -0.1 +1 +1 1018.5 1013.8 -0.3 +4.2
09 25.06 Ю 2 н/о н/о 0.0 -1 -1 1017.6 1012.9
12 25.06 Ю 4 н/о н/о +1.1 -2 -2 1014.6 1009.9 -1.2 +4.2
15 25.06 ЮВ 6 н/о н/о +2.1 -2 -2 1011.7 1007.0
18 25.06 ЮВ 5 н/о н/о +2.1 -2 -2 1011.2 1006.5 -1.2 +2.4
21 25.06 В 7 н/о н/о +2.2 -2 -2 1011.7 1007.0
00 26.06 В 3 н/о н/о +1.9 -1 -1 1014.3 1009.6 +2.8

 

Местоположение метеостанции Hat Island (Канада): широта 68.32 долгота -100.00 высота над уровнем моря 36 м.

В архиве по умолчанию представлена погода в Hat Island за последнюю неделю. Архивные данные за месяц целиком и за предыдущие месяцы, начиная с января 2011 года, Вы можете получить, выбрав интересующий диапазон дат из раскрывающегося списка и нажав кнопку "Ввод!".

Внимание! Время в таблицах - всемирное. Для получения местного времени необходимо прибавить поправку, которая в Hat Island равна -6 ч.

Смотрите также архив погоды в соседних городах и на ближайших метеорологических станциях:

Погода в Gjoa Haven Climate (Канада) (173 км)
Погода в Ellice River AWS (Канада) (198 км)
Погода в Cambridge Bay Gsn (Канада) (223 км)
Погода в Cambridge Bay Arpt (Канада) (223 км)
Погода в Shepherd Bay (Канада) (273 км)
Погода в Spence bay (Канада) (291 км)
Погода в Back River MAPS (Канада) (291 км)
Погода в Cape Peel West (Канада) (325 км)
Погода в Robertson Lake (Канада) (373 км)
Погода в Kugaaruk climate (Канада) (417 км)

Пояснения к столбцам:

Ветер - указаны скорость ветра в м/с - средняя за 10 мин, порывы в срок и между сроками (в фигурных скобках) и направление, откуда дует ветер: С - северный, СВ - северо-восточный, В - восточный, ЮВ - юго-восточный, Ю - южный, ЮЗ - юго-западный, З - западный, СЗ - северо-западный.
Видимость - горизонтальная дальность видимости в метрах или километрах. При видимости от 1 до 10 км при отсутствии осадков обычно наблюдается дымка, при ухудшении видимости до 1 км и менее - туман. В сухую погоду видимость может ухудшаться дымом, пылью или мглою.
Явления - указаны атмосферные явления, наблюдавшиеся в срок или в последний час перед сроком; фигурными скобками обозначены явления, наблюдавшиеся между сроками (за 1-3 часа до срока); квадратными скобками обозначены град или гололедные отложения с указанием их диаметра в мм.
Облачность - указаны через наклонную черту общая и нижняя облачность в баллах и высота нижней границы облаков в метрах; квадратными скобками обозначены формы облаков: Ci - перистые, Cs - перисто-слоистые, Cc - перисто-кучевые, Ac - высококучевые, As - высокослоистые, Sc - слоисто-кучевые, Ns - слоисто-дождевые, Cu - кучевые, Cb - кучево-дождевые. Подробнее классификацию облаков см. в Атласе облаков (PDF).
T - Температура воздуха - температура, измеренная на высоте 2 м над землей.
Td - Температура точки росы - температура, при понижении до которой содержащийся в воздухе водяной пар достигнет насыщения.
f - Относительная влажность воздуха - влажноcть воздуха, измеренная на высоте 2 м над землей.
Te - Эффективная температура - температура, которую ощущает одетый по сезону человек в тени. Характеристика душности погоды. При расчете учитывается влияние влажности воздуха и скорости ветра на теплоощущения человека.
Tes - Эффективная температура на солнце - температура, которую ощущает человек, с поправкой на солнечный нагрев. Характеристика знойности погоды. Зависит от высоты солнца над горизонтом, облачности и скорости ветра. Ночью, в пасмурную погоду, а также при ветре 12 м/с и более поправка равна нулю.
P - Атмосферное давление - приведенное к уровню моря атмосферное давление.
Po - Атмосферное давление - измеренное на уровне метеостанции атмосферное давление.
Tmin - Минимальная температура - минимум температуры воздуха на высоте 2 м над землей.
Tmax - Максимальная температура - максимум температуры воздуха на высоте 2 м над землей.
R - Количество осадков - Количество выпавших осадков за период времени, мм. При наведении курсора мыши на число - период времени, за который выпало указанное количество осадков.
R24 - Количество осадков - Количество выпавших осадков за 24 часа, мм.
S - Снежный покров - Высота снежного покрова, см. При наведении курсора мыши на число - состояние снежного покрова и степень покрытия местности в баллах.